Weather History for Moline, IL

Change the Weather History Date:

Tuesday, February 7, 2012

  Actual Average Record
Temperature  
Mean Temperature 27 °F 24 °F  
Max Temperature 33 °F 33 °F 59 °F (2009)
Min Temperature 20 °F 16 °F -17 °F (1977)
Degree Days  
Heating Degree Days 38 41  
Month to date heating degree days 227 289  
Since 1 July heating degree days 3457 4023  
Cooling Degree Days 0 0  
Month to date cooling degree days 0 0  
Year to date cooling degree days 0 0  
Moisture  
Dew Point 26 °F    
Average Humidity 89    
Maximum Humidity 96    
Minimum Humidity 82    
Precipitation  
Precipitation T in 0.05 in 0.74 in (2013)
Month to date precipitation 0.26 0.31  
Year to date precipitation 0.96 1.80  
Snow  
Snow T in 0.30 in - ()
Month to date snowfall T 2.0  
Since 1 July snowfall 9.0 21.9  
Snow Depth 0.00 in    
Sea Level Pressure  
Sea Level Pressure 30.34 in    
Wind  
Wind Speed 7 mph (NE)    
Max Wind Speed 16 mph    
Max Gust Speed 22 mph    
Visibility 6 miles    
Events Snow    
T = Trace of Precipitation, MM = Missing Value Source: NWS Daily Summary

Daily Weather History Graph

Daily Weather History Graph

Search for Another Location

Airport:

Trip Planner

Search our weather history database for the weather conditions in past years. The results will help you decide how hot, cold, wet, or windy it might be!

Date:

Astronomy

Feb. 07, 2012 Rise Set
Actual Time 7:07 AM CST 5:25 PM CST
Civil Twilight 6:38 AM CST 5:54 PM CST
Nautical Twilight 6:05 AM CST 6:26 PM CST
Astronomical Twilight 5:33 AM CST 6:59 PM CST
Moon 5:37 PM CST (2/7) 6:36 AM CST (2/7)
Length of Visible Light 11h 15m
Length of Day
10h 17m
Full, 100% of the Moon is Illuminated
Feb 7
Full
Feb 7
Full
Feb 14
Last Quarter
Feb 21
New
Feb 29
First Quarter

Hourly Weather History & Observations

Time (CST) Temp. Windchill Dew Point Humidity Pressure Visibility Wind Dir Wind Speed Gust Speed Precip Events Conditions
12:52 AM 21.0 °F 16.2 °F 19.0 °F 92% 30.22 in 5.0 mi ESE 3.5 mph - N/A   Clear
1:52 AM 24.1 °F 19.7 °F 21.0 °F 88% 30.23 in 4.0 mi ENE 3.5 mph - N/A   Mostly Cloudy
2:01 AM 23.0 °F - 21.2 °F 93% 30.21 in 4.0 mi Calm Calm - N/A   Mostly Cloudy
2:52 AM 25.0 °F - 23.0 °F 92% 30.23 in 5.0 mi Calm Calm - N/A   Overcast
3:07 AM 26.6 °F 22.6 °F 23.0 °F 86% 30.21 in 5.0 mi East 3.5 mph - N/A   Overcast
3:52 AM 26.1 °F 20.5 °F 24.1 °F 92% 30.23 in 4.0 mi ENE 4.6 mph - N/A   Overcast
4:52 AM 28.0 °F 21.7 °F 26.1 °F 92% 30.25 in 4.0 mi NE 5.8 mph - N/A   Overcast
5:52 AM 28.0 °F 21.7 °F 26.1 °F 92% 30.26 in 4.0 mi NE 5.8 mph - N/A   Overcast
6:32 AM 28.4 °F 23.3 °F 26.6 °F 93% 30.25 in 4.0 mi ENE 4.6 mph - N/A   Overcast
6:52 AM 28.9 °F - 27.0 °F 92% 30.28 in 2.5 mi Calm Calm - N/A   Overcast
7:52 AM 30.0 °F 25.2 °F 28.0 °F 92% 30.30 in 2.5 mi NNE 4.6 mph - N/A   Overcast
8:52 AM 30.9 °F 25.2 °F 28.0 °F 89% 30.32 in 2.5 mi NE 5.8 mph - N/A   Overcast
9:52 AM 32.0 °F 23.0 °F 28.9 °F 88% 30.34 in 4.0 mi NE 11.5 mph - N/A   Overcast
10:52 AM 33.1 °F 25.5 °F 28.9 °F 85% 30.36 in 4.0 mi ENE 9.2 mph - N/A   Overcast
11:48 AM 33.8 °F 28.6 °F 30.2 °F 87% 30.33 in 1.2 mi NE 5.8 mph - N/A   Overcast
11:52 AM 33.1 °F 27.7 °F 30.0 °F 89% 30.35 in 1.2 mi NE 5.8 mph - N/A   Overcast
12:52 PM 33.1 °F 27.7 °F 32.0 °F 96% 30.36 in 1.0 mi NE 5.8 mph - N/A   Overcast
12:58 PM 33.8 °F 26.4 °F 30.2 °F 87% 30.33 in 2.0 mi NE 9.2 mph - N/A   Overcast
1:05 PM 33.8 °F 24.8 °F 30.2 °F 87% 30.33 in 1.0 mi ENE 12.7 mph - N/A   Overcast
1:20 PM 33.8 °F 25.8 °F 30.2 °F 87% 30.33 in 2.0 mi NE 10.4 mph - N/A   Overcast
1:52 PM 32.0 °F 22.1 °F 30.0 °F 92% 30.36 in 2.0 mi ENE 13.8 mph - N/A   Overcast
2:28 PM 32.0 °F 22.5 °F 28.4 °F 87% 30.35 in 2.5 mi NE 12.7 mph - N/A   Overcast
2:52 PM 32.0 °F 24.2 °F 28.0 °F 85% 30.38 in 2.5 mi NE 9.2 mph - N/A   Overcast
2:53 PM 32.0 °F 23.6 °F 28.4 °F 87% 30.36 in 4.0 mi NE 10.4 mph - N/A   Overcast
3:52 PM 30.9 °F 20.7 °F 28.0 °F 89% 30.39 in 3.0 mi NE 13.8 mph - N/A   Overcast
4:43 PM 30.2 °F 20.8 °F 26.6 °F 86% 30.37 in 10.0 mi NE 11.5 mph - N/A   Overcast
4:52 PM 30.9 °F 22.2 °F 27.0 °F 85% 30.40 in 9.0 mi NE 10.4 mph - N/A   Overcast
5:28 PM 30.2 °F 21.9 °F 26.6 °F 86% 30.38 in 10.0 mi NNE 9.2 mph - N/A   Overcast
5:52 PM 30.0 °F 20.0 °F 26.1 °F 85% 30.41 in 10.0 mi NNE 12.7 mph - N/A   Overcast
6:35 PM 30.2 °F 22.6 °F 26.6 °F 86% 30.40 in 10.0 mi NNE 8.1 mph - N/A   Overcast
6:52 PM 28.9 °F 19.8 °F 25.0 °F 85% 30.43 in 10.0 mi NNE 10.4 mph - N/A   Overcast
7:15 PM 28.4 °F 21.2 °F 24.8 °F 86% 30.40 in 10.0 mi NE 6.9 mph - N/A   Overcast
7:52 PM 28.9 °F 21.1 °F 25.0 °F 85% 30.43 in 10.0 mi NE 8.1 mph - N/A   Overcast
8:06 PM 28.4 °F 19.1 °F 24.8 °F 86% 30.40 in 10.0 mi NNE 10.4 mph - N/A   Overcast
8:52 PM 28.9 °F 23.9 °F 24.1 °F 82% 30.43 in 10.0 mi NNE 4.6 mph - N/A   Overcast
9:52 PM 28.9 °F 21.1 °F 24.1 °F 82% 30.44 in 8.0 mi NNE 8.1 mph - 0.00 in Snow Light Snow
10:04 PM 28.4 °F 22.2 °F 23.0 °F 80% 30.42 in 9.0 mi NNE 5.8 mph - 0.00 in Snow Light Snow
10:14 PM 28.4 °F 20.4 °F 23.0 °F 80% 30.42 in 8.0 mi NNE 8.1 mph - 0.00 in Snow Light Snow
10:52 PM 28.0 °F 22.8 °F 23.0 °F 81% 30.45 in 9.0 mi NNE 4.6 mph - 0.00 in   Overcast
11:52 PM 27.0 °F 20.5 °F 21.9 °F 81% 30.45 in 10.0 mi NNE 5.8 mph - 0.00 in   Overcast